CHINASAT 2D (43920 NORAD) Tracking and Keplerian Element Data

This shows tracking and keplerian element data for the satellite.

Feedback or suggestion? Click here.




ElementValue
Catalog43920
NameCHINASAT 2D
Epoch Orbit2
Epoch Day11.36550613
Epoch Year2019
RAAN4.7362
Inclination27.1061
Eccentricity0.7309322
Argument of Perigee179.7744
Mean Anonmoly160.1328
Mean Motion2.28097794
Decay Rate9.67E-06
L11 43920U 19001A 19011.36550613 .00000967 13253-5 10000-3 0 9995
L22 43920 27.1061 4.7362 7309322 179.7744 160.1328 2.28097794 25

Live tracking and technical data element details for CHINASAT 2D (NORAD 43920). CHINASAT 2D can be tracked NOW for your location showing map with azimuth and elevation plus other details from your city location.

Track the satellite on the map from your city or location and see movement details for azimuth, elevation, latitude, longitude, range, height, and movement on the map or in text.







IsCatalogInMostPopularTable: catalog: 43920, numindb: 4
Update: records affected: 1



GetName: 43920 CHINASAT 2D

Hit Count: updated at: Thu, 17 Jan 2019 16:09:13 GMT